Theta_e
308 306 306 306 306 306 306 306 306 307 307 306 305 305 306 307 308 312 313 312 314 311 315 314 315 314 312 313 314 313 320 320 321 323 323 337 342 343 343 344 345 346 349 344 345
310 307 306 306 306 307 307 307 307 306 307 306 305 305 307 308 315 315 313 313 313 312 313 314 316 314 314 312 314 317 319 318 319 321 321 329 338 338 346 346 346 345 342 341 345
311 309 307 306 306 307 307 307 307 307 307 306 304 306 308 311 316 315 318 316 314 311 312 313 312 313 313 311 312 313 317 316 317 318 319 319 330 338 343 343 343 339 346 344 345
311 310 308 306 306 306 307 307 307 307 307 306 304 306 308 316 318 313 316 318 315 313 313 313 312 313 314 313 311 312 313 314 315 316 317 318 318 325 332 327 326 336 341 345 345
312 311 308 307 306 306 306 306 307 307 307 306 305 307 313 315 316 314 316 314 315 314 315 315 313 313 315 313 312 313 315 313 314 314 315 315 317 321 330 333 331 342 342 345 345
311 310 308 307 306 306 306 307 308 307 307 307 306 307 317 316 313 315 316 313 316 316 314 312 313 313 314 314 314 315 314 315 315 315 313 313 318 327 323 332 331 341 341 344 346
309 309 308 308 307 307 308 307 307 307 307 307 307 310 315 317 315 320 316 315 316 313 313 311 311 315 315 316 314 313 315 315 314 314 315 321 332 336 328 338 342 343 341 342 342
308 308 308 307 307 307 307 307 307 307 308 307 308 314 319 317 315 316 318 317 319 316 315 315 311 315 317 313 312 314 313 316 315 314 329 324 319 330 342 341 344 346 344 342 339
307 307 307 307 307 307 307 307 311 314 310 309 315 317 325 321 321 322 320 321 319 320 320 313 314 313 312 314 315 314 319 316 317 316 324 330 324 333 341 343 342 341 341 341 341
308 308 307 307 307 307 307 310 317 316 315 315 317 321 322 324 323 321 322 317 315 318 317 316 317 321 320 321 327 321 320 319 320 320 329 323 333 333 336 337 338 338 338 338 339
310 308 307 307 307 307 309 310 319 320 321 322 320 321 320 321 322 320 319 316 316 318 321 317 321 322 321 318 316 318 320 323 322 325 334 334 333 331 330 331 332 332 333 334 335
311 309 308 307 307 308 314 317 319 319 322 319 320 320 320 321 324 322 315 319 319 320 320 318 316 315 314 319 319 320 320 322 324 329 332 333 334 329 328 327 326 327 328 330 332
316 313 312 312 310 316 313 316 317 317 322 322 320 322 323 323 322 321 318 318 321 322 321 322 316 313 314 314 316 320 318 317 320 328 330 327 332 332 328 325 325 325 326 328 330
315 317 315 315 312 312 312 316 318 317 329 326 320 319 318 324 320 317 317 319 320 316 316 315 312 312 312 313 314 315 315 314 315 322 326 323 328 332 330 324 323 324 325 327 326
313 317 319 317 315 315 314 317 318 320 333 323 319 316 316 319 318 318 315 321 323 322 323 318 312 312 313 313 313 314 314 315 316 318 326 326 326 333 328 325 323 323 323 324 323
310 315 318 317 315 317 317 320 321 330 333 319 316 315 318 317 317 315 316 318 318 316 316 314 312 313 313 313 313 313 315 317 324 322 324 324 327 332 328 323 324 323 323 323 321
310 313 317 316 318 317 318 323 330 331 320 316 316 315 315 316 318 315 314 315 319 321 318 314 312 312 312 314 314 316 315 312 318 326 327 324 326 329 324 322 323 322 322 322 321
311 314 318 318 317 318 322 328 333 321 316 314 315 315 315 314 314 315 316 315 313 314 314 314 312 313 314 315 314 315 317 312 311 313 313 321 326 330 322 321 320 321 320 318 320
313 316 316 318 321 317 325 329 331 322 315 315 315 316 315 314 314 315 314 314 313 313 315 314 313 312 314 316 315 316 316 317 323 324 322 321 330 323 322 321 319 319 319 319 320
314 318 319 320 319 318 324 323 323 317 315 315 315 315 315 314 314 315 315 313 314 313 313 315 314 311 314 315 316 316 316 316 317 315 315 319 325 320 326 324 320 319 320 320 319
317 321 319 320 317 323 323 322 322 314 315 315 315 315 315 314 314 315 315 313 313 314 314 314 312 310 316 316 316 316 317 317 317 323 317 315 316 326 325 321 320 318 319 318 318
313 319 316 318 323 317 323 320 313 314 315 315 315 315 316 315 315 316 315 315 313 315 315 312 314 314 314 315 316 318 318 317 313 317 320 321 315 320 321 319 318 317 317 317 318
322 319 316 317 321 321 317 315 314 313 314 315 315 315 315 316 316 315 316 314 314 315 317 316 318 316 311 316 317 318 318 317 318 319 315 313 312 320 319 319 318 317 317 316 316
318 323 319 313 313 317 318 314 314 313 314 314 315 315 315 316 315 317 317 315 314 315 317 317 319 317 311 309 314 317 317 317 319 318 315 314 313 314 318 319 317 316 316 317 316
314 316 313 319 318 318 316 315 314 315 314 314 315 316 316 317 315 316 316 314 317 322 317 320 320 319 316 313 316 317 316 317 318 318 318 315 314 313 312 313 315 316 315 317 317
311 314 314 314 314 318 315 316 315 315 315 316 316 316 315 318 318 317 316 316 316 322 319 317 320 320 319 317 316 317 317 317 317 317 317 317 317 315 314 313 316 316 315 315 316
301 306 313 312 316 318 318 318 318 316 318 315 316 316 315 316 315 316 316 316 317 320 321 321 321 320 316 316 317 318 318 318 317 316 317 318 316 314 315 316 316 314 315 315 314
Wind_Speed
16 16 15 14 14 14 13 14 14 15 14 13 13 13 16 18 20 10 8 4 3 14 13 22 13 13 7 4 3 3 6 8 10 9 6 4 8 4 1 5 4 6 3 1 19
16 16 15 14 14 14 13 13 14 14 13 11 11 13 16 18 13 9 1 5 5 20 15 13 11 11 4 4 3 5 6 9 5 9 7 6 9 5 4 7 8 9 8 9 21
16 16 15 14 14 14 14 14 14 14 13 12 11 12 14 13 5 1 2 5 12 16 11 5 15 6 4 3 5 3 8 6 10 12 9 9 5 5 6 9 17 17 14 16 22
16 16 15 14 14 14 14 14 14 14 13 11 10 11 12 4 2 1 3 8 17 14 13 11 6 7 5 6 5 4 8 9 9 10 6 13 10 9 18 18 21 13 11 17 20
14 13 13 14 14 14 14 14 14 13 12 10 9 8 4 3 6 0 3 16 18 13 8 6 8 5 6 5 7 7 8 8 14 10 11 8 16 11 13 23 15 4 10 17 19
12 12 12 13 13 14 14 14 13 12 12 9 8 4 2 3 2 3 7 17 12 9 6 6 7 4 4 4 6 4 7 7 7 8 7 8 5 6 10 13 17 11 13 14 16
11 10 10 11 12 13 13 13 13 13 12 8 6 0 2 5 4 6 13 8 14 8 5 7 6 4 4 3 2 1 5 8 4 4 3 6 4 8 20 11 9 9 5 6 2
11 10 10 10 12 12 13 13 14 15 11 4 2 1 6 2 6 9 13 7 9 8 1 1 4 1 2 2 2 2 1 3 3 3 3 4 7 19 20 12 10 8 6 5 5
12 10 10 10 11 12 12 12 10 4 3 6 2 1 2 3 4 6 17 4 7 5 4 6 2 1 2 1 2 3 1 2 4 10 3 2 7 18 16 12 12 14 13 10 8
12 10 10 10 11 10 10 6 5 6 7 4 0 3 3 2 2 3 11 9 4 9 6 1 2 3 3 2 6 2 2 1 2 5 9 4 9 14 14 13 14 14 14 13 12
12 11 10 10 10 9 7 2 1 1 2 4 3 5 4 7 3 5 6 8 4 4 4 4 7 10 8 2 4 3 2 2 2 4 5 7 9 13 13 17 18 17 16 15 15
13 11 10 10 10 9 3 2 4 2 5 5 7 7 8 3 1 3 7 4 3 6 6 6 11 3 3 4 5 2 2 5 3 6 3 6 10 10 15 17 16 17 17 17 18
13 11 10 12 10 2 4 2 3 1 2 4 3 3 2 4 4 5 1 3 5 5 4 4 5 6 3 8 4 1 1 3 2 3 5 2 4 8 10 16 16 18 16 17 18
15 12 11 13 3 6 3 1 12 8 1 7 2 3 2 1 4 5 5 1 3 11 9 7 4 3 6 6 4 3 1 8 9 4 5 2 3 3 10 13 17 18 19 18 20
15 12 11 9 8 2 2 8 3 2 3 6 4 3 6 4 3 7 6 5 6 6 4 4 6 5 6 4 3 3 13 9 7 7 3 4 4 4 5 9 16 17 17 17 17
15 13 10 8 5 5 3 5 2 2 2 1 4 6 3 8 5 6 6 8 2 8 11 5 3 5 4 2 3 11 2 2 3 3 5 3 3 2 3 5 11 14 16 17 18
14 13 9 6 2 1 6 2 2 3 0 1 2 3 5 5 4 7 5 5 2 2 2 2 5 2 3 2 1 10 2 2 3 4 1 3 2 4 3 3 8 13 15 16 16
13 11 8 11 5 1 1 1 4 2 1 1 1 3 3 3 3 3 2 3 5 2 3 2 3 2 3 3 3 4 4 2 2 2 0 0 3 3 5 4 5 8 10 13 15
10 5 4 2 5 10 2 2 2 4 4 4 2 2 2 1 1 1 2 2 1 1 1 1 2 2 2 4 2 2 2 2 3 1 3 1 3 5 7 1 5 7 9 12 12
7 2 3 4 11 4 2 3 3 3 4 2 3 1 4 1 3 3 4 2 3 1 1 3 2 0 1 3 6 2 5 3 2 3 3 4 4 4 14 4 3 5 7 9 10
3 0 7 3 2 2 2 4 4 4 4 4 4 4 3 3 3 4 4 2 3 3 3 3 1 3 2 1 1 3 3 3 1 2 2 2 2 2 5 3 2 4 4 6 7
3 1 10 3 1 1 3 4 3 4 1 3 4 3 5 6 4 4 7 3 6 6 3 2 1 2 1 2 2 1 2 1 3 4 1 2 3 5 4 3 3 4 3 4 5
3 2 6 3 2 2 2 2 4 4 3 4 4 3 2 5 3 3 4 2 7 8 7 7 2 3 3 4 3 4 3 3 3 0 7 4 1 6 6 6 6 5 3 3 5
3 3 3 3 2 2 2 2 4 2 3 3 3 4 3 4 3 5 6 4 6 5 7 7 4 6 7 3 3 5 7 8 5 4 4 9 12 8 9 9 7 7 5 5 4
5 2 1 4 2 5 2 2 2 3 1 3 2 7 7 5 4 5 4 4 3 8 5 4 6 6 9 7 7 8 10 12 12 10 8 6 7 12 8 8 7 6 5 5 5
3 3 2 2 4 5 1 1 1 3 3 4 6 9 9 7 9 7 7 5 5 8 6 3 6 5 8 9 10 10 12 11 15 12 14 16 17 15 7 4 7 8 7 6 6
5 1 2 1 2 2 1 2 2 5 5 8 9 6 9 16 12 6 6 4 3 8 11 6 6 4 7 3 4 8 16 16 11 10 11 11 14 5 6 8 8 7 7 8 7
Wind_Direction
302 302 305 307 311 312 319 321 326 329 331 329 328 321 315 315 313 300 247 211 145 161 125 125 131 141 146 142 143 162 220 226 225 213 222 181 213 173 291 233 211 204 229 247 173
300 296 296 300 301 306 313 319 324 325 327 327 325 321 318 321 311 264 253 188 164 167 147 147 142 140 142 147 158 208 225 214 228 221 232 215 220 215 205 225 247 237 212 163 166
299 293 292 294 295 303 310 315 321 321 324 329 328 321 320 327 272 111 351 173 149 172 197 142 140 138 148 161 175 173 237 210 232 232 239 245 237 224 224 237 245 244 193 176 176
298 295 295 294 294 301 305 310 316 319 320 328 328 320 325 324 192 20 356 156 152 148 142 134 140 152 157 183 165 221 237 219 249 227 220 234 256 243 234 242 255 264 225 181 187
301 296 294 293 295 297 301 308 314 314 314 324 325 329 352 271 255 135 104 146 155 157 162 152 161 158 188 176 155 217 251 208 240 246 240 239 242 252 253 246 250 274 204 205 201
308 302 298 297 296 298 302 307 308 307 308 318 321 333 271 268 195 204 154 150 172 162 161 168 190 205 139 179 207 216 237 267 265 251 228 212 245 199 269 296 250 231 225 218 208
319 310 304 301 298 300 306 309 307 299 296 308 303 30 222 230 176 137 168 178 174 173 160 200 178 190 141 162 215 91 287 295 291 276 242 192 209 231 349 326 294 278 280 263 293
329 321 312 306 306 308 312 312 306 301 297 271 222 113 251 195 210 207 186 203 197 206 219 240 188 93 262 97 70 170 158 337 16 296 92 223 242 4 358 348 19 28 18 343 351
334 328 321 315 310 310 320 320 324 347 106 132 108 201 274 165 227 227 210 197 147 196 190 99 143 91 143 213 156 38 111 328 312 45 33 297 337 359 10 42 48 47 45 43 30
335 329 322 315 310 318 327 351 74 84 96 93 131 264 224 108 259 171 179 155 123 132 116 168 63 86 64 30 68 52 63 275 356 25 40 93 24 22 31 51 45 43 37 33 30
336 330 322 315 314 328 336 143 251 131 152 246 291 281 291 315 260 203 157 142 134 75 109 31 98 64 40 94 122 136 116 44 71 136 76 70 58 37 36 45 41 37 34 24 16
342 337 330 322 323 330 32 78 118 294 311 240 248 264 276 261 69 70 153 154 151 127 130 107 76 29 73 109 125 96 3 47 97 111 109 147 71 60 45 42 40 29 24 19 11
333 335 340 339 335 47 332 188 215 257 265 300 222 285 355 182 63 7 244 132 96 131 175 112 109 40 137 61 46 206 81 313 296 82 125 184 103 56 26 28 26 26 22 19 15
328 318 317 331 3 334 276 144 318 172 348 6 25 71 25 277 76 23 12 98 94 118 109 84 25 91 74 79 348 280 86 308 281 234 253 268 250 74 3 23 27 17 14 11 6
318 316 310 305 300 244 150 333 98 174 142 360 10 4 27 77 330 35 2 54 125 150 204 100 80 58 55 11 330 302 322 299 293 263 262 29 262 46 11 17 9 7 6 6 8
308 302 298 298 262 245 287 337 163 236 141 41 14 357 54 26 27 329 31 51 109 75 75 80 107 47 12 335 358 316 303 82 131 180 220 22 319 69 33 353 353 359 2 1 3
305 293 274 236 249 246 309 146 213 217 358 68 49 35 78 18 46 27 39 43 44 176 142 111 59 107 17 7 335 1 333 167 158 176 155 35 247 84 131 42 3 353 355 359 4
308 284 268 245 243 172 127 143 225 141 175 140 129 108 101 8 68 42 101 113 61 81 117 45 183 48 17 37 330 16 357 13 225 200 203 100 195 150 155 78 10 3 350 356 3
327 294 266 298 259 198 146 196 242 191 155 162 124 132 121 140 110 99 63 123 69 32 118 170 175 139 71 41 301 75 67 1 106 79 241 161 167 163 157 76 9 358 356 359 3
330 318 30 1 126 140 111 235 222 204 138 152 193 179 179 201 192 187 188 163 143 81 302 154 238 133 111 190 68 43 123 199 172 219 240 189 244 254 199 248 326 329 341 344 351
12 12 1 135 19 71 214 226 222 219 150 162 175 155 177 185 197 190 181 163 213 124 94 133 275 133 216 198 113 151 159 75 66 289 260 273 216 107 159 180 268 321 331 333 341
359 327 357 107 146 13 198 198 213 169 181 120 125 146 185 171 186 200 202 240 179 161 173 93 157 248 26 90 329 114 139 196 252 180 208 303 264 158 189 198 261 309 308 323 330
0 313 14 7 223 211 256 240 194 163 181 162 153 163 152 169 188 207 201 183 169 174 177 176 191 278 167 160 184 230 171 131 109 245 220 243 209 185 211 216 227 255 256 254 281
352 353 5 52 30 4 349 216 202 198 165 143 134 129 145 180 195 195 210 180 187 201 136 147 170 228 265 319 138 197 195 188 210 216 224 236 279 251 240 241 229 223 236 245 261
16 48 49 339 11 345 297 306 237 215 135 162 140 202 180 192 188 212 205 192 177 159 140 204 233 213 247 232 208 234 226 203 211 229 230 284 235 273 279 270 247 224 234 234 247
19 359 2 271 297 303 331 117 270 7 212 210 221 206 188 199 193 194 185 198 203 184 189 192 236 205 257 236 225 233 233 228 226 239 250 260 269 273 278 244 210 223 232 243 243
10 357 270 305 334 302 352 6 1 345 259 242 230 178 200 227 206 214 188 178 190 187 195 188 192 186 253 219 204 253 233 221 211 221 231 245 260 232 220 223 234 246 233 243 236